This demonstration page uses our WeatherBlox Daily Observations layout. Learn more.

Left ArrowRight Arrow

39.51506, -84.39828

Hourly Observations for April 1, 2020

Temp ( °F °C ) Dew Point ( °F °C ) Humidity (%) Winds ( mph kmh ) Pressure ( in mb ) Visibility ( mi km ) Precip ( " mm )
12:15 am 00:15 Cloudy 42 5.5 38 3.4 87 87 NNW 7 11 29.94 1014 10 16 N/A
12:35 am 00:35 Cloudy 42 5.4 38 3.4 87 87 N 8 13 29.94 1014 10 16 N/A
12:55 am 00:55 Cloudy 42 5.3 38 3.5 88 88 N 7 11 29.94 1014 10 16 N/A
1:15 am 01:15 Cloudy 42 5.3 38 3.6 89 89 N 7 11 29.94 1014 10 16 N/A
1:35 am 01:35 Cloudy 42 5.3 39 3.7 90 90 NNW 7 11 29.94 1014 10 16 N/A
1:55 am 01:55 Cloudy 42 5.3 39 3.7 90 90 NNW 8 13 29.94 1014 10 16 N/A
2:15 am 02:15 Cloudy 42 5.3 38 3.6 89 89 N 7 11 29.94 1014 10 16 N/A
2:35 am 02:35 Cloudy 41 5.2 39 3.7 90 90 NNW 9 15 29.94 1014 10 16 N/A
2:55 am 02:55 Cloudy 42 5.3 39 3.8 90 90 N 6 9 29.94 1014 10 16 N/A
3:15 am 03:15 Cloudy 42 5.3 38 3.6 89 89 N 7 11 29.94 1014 10 16 N/A
3:35 am 03:35 Cloudy 42 5.3 38 3.6 89 89 NNW 6 9 29.94 1014 10 16 N/A
3:55 am 03:55 Cloudy 42 5.3 38 3.5 88 88 NNW 8 13 29.93 1014 10 16 N/A
4:15 am 04:15 Cloudy 42 5.3 38 3.3 87 87 N 5 7 29.93 1014 10 16 N/A
4:35 am 04:35 Cloudy 41 5.2 37 3 86 86 N 7 11 29.94 1014 10 16 N/A
4:55 am 04:55 Cloudy 41 5.2 37 2.8 85 85 N 8 13 29.94 1014 10 16 N/A
5:15 am 05:15 Cloudy 42 5.3 37 3 85 85 N 8 13 29.94 1014 10 16 N/A
5:35 am 05:35 Cloudy 41 5.2 38 3.1 86 86 NNW 8 13 29.94 1014 10 16 N/A
5:55 am 05:55 Cloudy 41 5.2 37 2.9 85 85 N 8 13 29.95 1014 10 16 N/A
6:15 am 06:15 Cloudy 41 5.2 37 2.8 85 85 NNW 6 9 29.96 1015 10 16 N/A
6:35 am 06:35 Cloudy 41 5.2 37 2.8 85 85 N 7 11 29.97 1015 10 16 N/A
6:55 am 06:55 Cloudy 41 5.2 37 2.8 85 85 N 5 7 29.97 1015 10 16 N/A
7:15 am 07:15 Cloudy 41 5.2 37 2.9 85 85 N 5 7 29.98 1015 10 16 N/A
7:35 am 07:35 Cloudy 41 5.2 37 3 86 86 NNW 10 17 29.99 1016 10 16 N/A
7:55 am 07:55 Cloudy 42 5.3 38 3.1 86 86 NNW 10 17 30.00 1016 10 16 N/A
8:15 am 08:15 Cloudy 42 5.5 38 3.3 86 86 NW 9 15 30.00 1016 10 16 N/A
8:35 am 08:35 Cloudy 42 5.6 39 3.9 89 89 NNW 12 19 30.01 1016 7 11 N/A
8:55 am 08:55 Cloudy 42 5.6 40 4.4 92 92 NNW 7 11 30.01 1016 10 16 N/A
9:15 am 09:15 Cloudy 43 6.2 40 4.5 89 89 NNW 8 13 30.02 1017 10 16 N/A
9:35 am 09:35 Cloudy 44 6.6 40 4.4 86 86 N 3 6 30.02 1017 10 16 N/A
9:55 am 09:55 Cloudy 44 6.7 39 4.1 84 84 NNW 13 20 30.03 1017 10 16 N/A
10:15 am 10:15 Cloudy 45 7.3 39 4.1 80 80 NNW 12 19 30.04 1017 10 16 N/A
10:35 am 10:35 Cloudy 46 7.7 39 4.1 78 78 N 8 13 30.03 1017 10 16 N/A
10:55 am 10:55 Cloudy 46 7.7 39 3.9 77 77 NNW 8 13 30.04 1017 10 16 N/A
11:15 am 11:15 Cloudy 47 8.3 39 3.9 74 74 N 13 20 30.04 1017 10 16 N/A
11:35 am 11:35 Cloudy 47 8.1 38 3.3 72 72 N 10 17 30.04 1017 10 16 N/A
11:55 am 11:55 Cloudy 48 8.7 39 3.9 72 72 NNE 13 20 30.04 1017 10 16 N/A
12:15 pm 12:15 Cloudy 47 8.5 39 3.9 73 73 N 10 17 30.04 1017 10 16 N/A
12:35 pm 12:35 Cloudy 48 8.9 39 4 72 72 N 8 13 30.04 1017 10 16 N/A
12:55 pm 12:55 Cloudy 49 9.4 39 4.1 70 70 NNE 10 17 30.04 1017 10 16 N/A
1:15 pm 13:15 Cloudy 50 10 39 3.9 66 66 NNW 8 13 30.04 1017 10 16 N/A
1:35 pm 13:35 Cloudy 51 10.5 39 4 64 64 NNW 10 17 30.03 1017 10 16 N/A
1:55 pm 13:55 Cloudy 51 10.7 39 3.9 63 63 N 12 19 30.03 1017 10 16 N/A
2:15 pm 14:15 Cloudy 51 10.4 39 3.8 64 64 NNW 13 20 30.04 1017 10 16 N/A
2:35 pm 14:35 Cloudy 51 10.8 39 3.8 62 62 N 12 19 30.04 1017 10 16 N/A
2:55 pm 14:55 Cloudy 51 10.6 39 3.8 63 63 NW 13 20 30.04 1017 10 16 N/A
3:15 pm 15:15 Cloudy 51 10.6 38 3.5 62 62 NW 13 20 30.04 1017 10 16 N/A
3:35 pm 15:35 Cloudy 51 10.6 37 3 60 60 NW 8 13 30.04 1017 10 16 N/A
3:55 pm 15:55 Cloudy 51 10.8 38 3.3 60 60 WNW 9 15 30.04 1017 10 16 N/A
4:15 pm 16:15 Cloudy 51 10.8 37 2.9 58 58 NNW 10 17 30.04 1017 10 16 N/A
4:35 pm 16:35 Cloudy 51 10.5 38 3.2 61 61 NNW 7 11 30.04 1017 10 16 N/A
4:55 pm 16:55 Cloudy 51 10.5 37 2.6 58 58 NNW 12 19 30.04 1017 10 16 N/A
5:15 pm 17:15 Cloudy 50 10.2 37 2.7 60 60 N 14 22 30.04 1017 10 16 N/A
5:35 pm 17:35 Cloudy with Light Rain 48 8.7 41 4.9 77 77 NE 10 17 30.04 1017 10 16 N/A
5:55 pm 17:55 Cloudy 49 9.3 40 4.7 73 73 ENE 7 11 30.05 1018 10 16 N/A
6:15 pm 18:15 Cloudy 49 9.4 40 4.2 70 70 NE 9 15 30.05 1018 10 16 N/A
6:35 pm 18:35 Cloudy 48 9 40 4.4 73 73 NE 7 11 30.06 1018 10 16 N/A
6:55 pm 18:55 Cloudy 48 9 39 3.9 71 71 N N/A 30.06 1018 10 16 N/A
7:15 pm 19:15 Cloudy 48 8.9 39 4.1 72 72 NNE 3 6 30.07 1018 10 16 N/A
7:35 pm 19:35 Cloudy 48 8.9 39 3.9 71 71 N N/A 30.07 1018 10 16 N/A
7:55 pm 19:55 Cloudy 48 8.7 39 4.1 73 73 N N/A 30.07 1018 10 16 N/A
8:15 pm 20:15 Cloudy 48 8.7 39 4.1 73 73 N N/A 30.07 1018 10 16 N/A
8:35 pm 20:35 Cloudy 47 8.6 40 4.2 74 74 N N/A 30.08 1019 10 16 N/A
8:55 pm 20:55 Cloudy 47 8.2 41 4.9 80 80 N N/A 30.08 1019 10 16 N/A
9:15 pm 21:15 Cloudy 46 7.9 40 4.7 80 80 N N/A 30.09 1019 10 16 N/A
9:35 pm 21:35 Cloudy 46 7.5 42 5.6 88 88 N N/A 30.10 1019 10 16 N/A
9:55 pm 21:55 Cloudy 46 7.7 41 5 83 83 N N/A 30.10 1019 10 16 N/A
10:15 pm 22:15 Cloudy 46 7.6 42 5.3 86 86 N N/A 30.11 1019 10 16 N/A
10:35 pm 22:35 Cloudy 45 7.4 41 5.2 86 86 N N/A 30.11 1019 10 16 N/A
10:55 pm 22:55 Cloudy 45 7.4 41 5.2 86 86 N N/A 30.12 1020 10 16 N/A
11:15 pm 23:15 Cloudy 45 7.2 41 5.2 87 87 N N/A 30.12 1020 10 16 N/A
11:35 pm 23:35 Cloudy 45 7.3 42 5.3 87 87 N N/A 30.13 1020 10 16 N/A
11:55 pm 23:55 Cloudy 45 7.2 41 5 86 86 N N/A 30.13 1020 10 16 N/A

Powered by AerisWeather